When you browse on this site, cookies collect data to enhance your experience and personalize the content and advertising you see.
Visit our Privacy Policy to learn more. By continuing to use the site, you agree to this use of cookies and data.
  • In Spain
  • List of Countries
  • For 7 days
  • Water Temperature
  • Satellite Maps
  • Weather Map
  • Weather Widgets
  • user-avatar
    Login

    Hourly Weather Makarska

    Today, 21 April, Sunday

    Time Temperature Precipitation Wind Pressure Humidity
    00:00 +14°C° 0 mm 3 mps 767 mmHg 54%
    01:00 +14°C° 0 mm 3 mps 766 mmHg 52%
    02:00 +14°C° 0 mm 3 mps 766 mmHg 52%
    03:00 +13°C° 0 mm 3 mps 766 mmHg 53%
    04:00 +13°C° 0 mm 3 mps 766 mmHg 53%
    05:00 +14°C° 0 mm 3 mps 766 mmHg 53%
    06:00 +14°C° 0 mm 3 mps 766 mmHg 52%
    07:00 +16°C° 0 mm 3 mps 765 mmHg 51%
    08:00 +17°C° 0 mm 3 mps 765 mmHg 51%
    09:00 +18°C° 0 mm 4 mps 765 mmHg 51%
    10:00 +20°C° 0 mm 4 mps 765 mmHg 51%
    11:00 +20°C° 0 mm 4 mps 765 mmHg 52%
    12:00 +20°C° 0 mm 5 mps 764 mmHg 53%
    13:00 +20°C° 0 mm 5 mps 764 mmHg 53%
    14:00 +20°C° 0 mm 4 mps 764 mmHg 56%
    15:00 +20°C° 0 mm 4 mps 763 mmHg 58%
    16:00 +19°C° 0 mm 4 mps 763 mmHg 61%
    17:00 +18°C° 0 mm 4 mps 763 mmHg 69%
    18:00 +17°C° 0 mm 3 mps 763 mmHg 76%
    19:00 +16°C° 0 mm 3 mps 763 mmHg 84%
    20:00 +16°C° 0 mm 3 mps 763 mmHg 84%
    21:00 +14°C° 0 mm 3 mps 763 mmHg 84%
    22:00 +14°C° 0 mm 3 mps 764 mmHg 84%
    23:00 +14°C° 0 mm 4 mps 763 mmHg 85%

    Tomorrow, 22 April, Monday

    Time Temperature Precipitation Wind Pressure Humidity
    00:00 +14°C° 0 mm 4 mps 763 mmHg 86%
    01:00 +14°C° 0 mm 4 mps 763 mmHg 87%
    02:00 +13°C° 0 mm 4 mps 763 mmHg 87%
    03:00 +13°C° 0 mm 4 mps 763 mmHg 88%
    04:00 +13°C° 0 mm 4 mps 762 mmHg 88%
    05:00 +13°C° 0 mm 5 mps 762 mmHg 86%
    06:00 +14°C° 0 mm 5 mps 761 mmHg 83%
    07:00 +14°C° 0 mm 6 mps 761 mmHg 80%
    08:00 +15°C° 0 mm 7 mps 761 mmHg 76%
    09:00 +16°C° 0 mm 7 mps 760 mmHg 73%
    10:00 +17°C° 0 mm 8 mps 759 mmHg 69%
    11:00 +17°C° 0 mm 8 mps 759 mmHg 69%
    12:00 +18°C° 0 mm 9 mps 758 mmHg 69%
    13:00 +18°C° 0 mm 9 mps 758 mmHg 69%
    14:00 +18°C° 0 mm 10 mps 757 mmHg 68%
    15:00 +17°C° 0 mm 10 mps 757 mmHg 67%
    16:00 +17°C° 0 mm 10 mps 756 mmHg 66%
    17:00 +17°C° 0 mm 11 mps 756 mmHg 70%
    18:00 +16°C° 0 mm 11 mps 756 mmHg 73%
    19:00 +14°C° 0 mm 11 mps 755 mmHg 76%
    20:00 +14°C° 1.6 mm 11 mps 755 mmHg 80%
    21:00 +14°C° 1.6 mm 11 mps 755 mmHg 84%
    22:00 +14°C° 1.6 mm 11 mps 755 mmHg 87%
    23:00 +14°C° 1.1 mm 11 mps 755 mmHg 86%

    Day after tomorrow, 23 April, Tuesday

    Time Temperature Precipitation Wind Pressure Humidity
    00:00 +14°C° 1.1 mm 12 mps 754 mmHg 84%
    01:00 +14°C° 1.1 mm 12 mps 754 mmHg 83%
    02:00 +14°C° 0.1 mm 12 mps 753 mmHg 84%
    03:00 +14°C° 0.1 mm 12 mps 753 mmHg 84%
    04:00 +14°C° 0.1 mm 12 mps 753 mmHg 85%
    05:00 +14°C° 0.2 mm 12 mps 753 mmHg 85%
    06:00 +14°C° 0.2 mm 12 mps 752 mmHg 86%
    07:00 +14°C° 0.2 mm 12 mps 752 mmHg 86%
    08:00 +15°C° 0.2 mm 12 mps 752 mmHg 86%
    09:00 +15°C° 0.2 mm 12 mps 753 mmHg 87%
    10:00 +15°C° 0.2 mm 12 mps 753 mmHg 87%
    11:00 +16°C° 0.7 mm 11 mps 753 mmHg 87%
    12:00 +17°C° 0.7 mm 11 mps 753 mmHg 87%
    13:00 +17°C° 0.7 mm 10 mps 753 mmHg 87%
    14:00 +18°C° 2.4 mm 10 mps 753 mmHg 84%
    15:00 +18°C° 2.4 mm 10 mps 753 mmHg 81%
    16:00 +19°C° 2.4 mm 9 mps 753 mmHg 78%
    17:00 +18°C° 2 mm 8 mps 754 mmHg 79%
    18:00 +18°C° 2 mm 7 mps 754 mmHg 80%
    19:00 +17°C° 2 mm 6 mps 754 mmHg 81%
    20:00 +17°C° 1.9 mm 7 mps 755 mmHg 83%
    21:00 +17°C° 1.9 mm 7 mps 756 mmHg 84%
    22:00 +17°C° 1.9 mm 7 mps 757 mmHg 86%
    23:00 +16°C° 2.5 mm 8 mps 757 mmHg 88%

    24 April, Wednesday

    Time Temperature Precipitation Wind Pressure Humidity
    00:00 +16°C° 2.5 mm 8 mps 758 mmHg 90%
    01:00 +16°C° 2.5 mm 9 mps 758 mmHg 93%
    02:00 +16°C° 0.4 mm 9 mps 758 mmHg 93%
    03:00 +16°C° 0.4 mm 9 mps 758 mmHg 93%
    04:00 +16°C° 0.4 mm 9 mps 759 mmHg 93%
    05:00 +16°C° 0 mm 9 mps 759 mmHg 93%
    06:00 +16°C° 0 mm 9 mps 759 mmHg 92%
    07:00 +16°C° 0 mm 9 mps 760 mmHg 91%
    08:00 +17°C° 0 mm 9 mps 760 mmHg 88%
    09:00 +17°C° 0 mm 8 mps 761 mmHg 85%
    10:00 +17°C° 0 mm 8 mps 761 mmHg 83%
    11:00 +18°C° 0 mm 8 mps 761 mmHg 78%
    12:00 +20°C° 0 mm 8 mps 761 mmHg 74%
    13:00 +21°C° 0 mm 8 mps 761 mmHg 69%
    14:00 +21°C° 0 mm 7 mps 761 mmHg 68%
    15:00 +21°C° 0 mm 7 mps 761 mmHg 68%
    16:00 +21°C° 0 mm 7 mps 761 mmHg 67%
    17:00 +20°C° 0 mm 6 mps 761 mmHg 69%
    18:00 +19°C° 0 mm 5 mps 761 mmHg 71%
    19:00 +17°C° 0 mm 5 mps 761 mmHg 73%
    20:00 +17°C° 0 mm 5 mps 762 mmHg 72%
    21:00 +17°C° 0 mm 5 mps 762 mmHg 70%
    22:00 +17°C° 0 mm 5 mps 763 mmHg 69%
    23:00 +16°C° 0 mm 5 mps 763 mmHg 71%

    25 April, Thursday

    Time Temperature Precipitation Wind Pressure Humidity
    00:00 +16°C° 0 mm 5 mps 763 mmHg 72%
    01:00 +16°C° 0 mm 5 mps 763 mmHg 73%
    02:00 +16°C° 0 mm 6 mps 763 mmHg 75%
    03:00 +16°C° 0 mm 6 mps 763 mmHg 77%
    04:00 +16°C° 0 mm 6 mps 763 mmHg 78%
    05:00 +16°C° 0 mm 6 mps 763 mmHg 77%
    06:00 +17°C° 0 mm 6 mps 763 mmHg 76%
    07:00 +19°C° 0 mm 6 mps 763 mmHg 75%
    08:00 +20°C° 0 mm 6 mps 763 mmHg 71%
    09:00 +21°C° 0 mm 6 mps 763 mmHg 67%
    10:00 +22°C° 0 mm 6 mps 763 mmHg 63%
    11:00 +22°C° 0 mm 6 mps 763 mmHg 62%
    12:00 +22°C° 0 mm 7 mps 763 mmHg 61%
    13:00 +23°C° 0 mm 7 mps 762 mmHg 60%
    14:00 +23°C° 0 mm 6 mps 762 mmHg 60%
    15:00 +23°C° 0 mm 6 mps 762 mmHg 61%
    16:00 +22°C° 0 mm 6 mps 761 mmHg 61%
    17:00 +21°C° 0 mm 5 mps 761 mmHg 65%
    18:00 +20°C° 0 mm 4 mps 761 mmHg 68%
    19:00 +19°C° 0 mm 4 mps 761 mmHg 71%
    20:00 +19°C° 0 mm 4 mps 761 mmHg 70%
    21:00 +19°C° 0 mm 4 mps 761 mmHg 70%
    22:00 +19°C° 0 mm 4 mps 762 mmHg 69%
    23:00 +18°C° 0 mm 4 mps 761 mmHg 69%

    26 April, Friday

    Time Temperature Precipitation Wind Pressure Humidity
    00:00 +18°C° 0 mm 4 mps 761 mmHg 70%
    01:00 +18°C° 0 mm 4 mps 761 mmHg 70%
    02:00 +18°C° 0 mm 4 mps 761 mmHg 72%
    03:00 +16°C° 0 mm 5 mps 761 mmHg 74%
    04:00 +16°C° 0 mm 5 mps 761 mmHg 76%
    05:00 +17°C° 0 mm 5 mps 761 mmHg 77%
    06:00 +17°C° 0 mm 6 mps 761 mmHg 77%
    07:00 +19°C° 0 mm 6 mps 761 mmHg 77%
    08:00 +19°C° 0 mm 6 mps 761 mmHg 75%
    09:00 +20°C° 0 mm 7 mps 761 mmHg 73%
    10:00 +21°C° 0 mm 7 mps 760 mmHg 71%
    11:00 +21°C° 0 mm 7 mps 760 mmHg 71%
    12:00 +22°C° 0 mm 7 mps 760 mmHg 71%
    13:00 +22°C° 0 mm 6 mps 760 mmHg 71%
    14:00 +22°C° 0 mm 6 mps 759 mmHg 72%
    15:00 +22°C° 0 mm 6 mps 759 mmHg 73%
    16:00 +21°C° 0 mm 6 mps 759 mmHg 74%
    17:00 +20°C° 0 mm 5 mps 759 mmHg 77%
    18:00 +20°C° 0 mm 5 mps 759 mmHg 80%
    19:00 +19°C° 0 mm 4 mps 759 mmHg 83%
    20:00 +18°C° 0.1 mm 4 mps 759 mmHg 84%
    21:00 +18°C° 0.1 mm 4 mps 759 mmHg 84%
    22:00 +18°C° 0.1 mm 4 mps 760 mmHg 84%
    23:00 +18°C° 0.8 mm 3 mps 760 mmHg 85%
    Show more